Notices

What's New in latest Release from April 7th, 2021:

- Updated Glossary, including Speed of Maximum Gust, and Total Hourly Precipitation

- Updated national and regional climate services offices contacts and prices information

- Addition of station inventory lists for 1981-2010, 1971-2000, and 1961-1990 Normals.

If you haven't already, please take our survey and provide feedback about our website: https://eccc.sondage-survey.ca/f/LanguageSelection.aspx?s=442ca660-fcf1-47c0-95a9-59707d6fd709

Hourly Data Report for March 23, 2004

SHERBROOKE A
QUEBEC

45°26'00.000" N
71°41'00.000" W
241.40 m
7028124
71610
YSC

Download Data

Hourly Data (March 2004)
Hourly Data Report for March 23, 2004
TIME
LST
Temp Definition
°C
Dew Point Definition
°C
Rel Hum Definition
%
Precip. Amount Definition
mm

Wind Dir Definition
10's deg

Wind Spd Definition
km/h
Visibility Definition
km
Stn Press Definition
kPa
Hmdx Definition


Wind Chill Definition


Weather Definition


00:00 -16.2 -22.1 60   22 7 15.0 99.32   -21  
01:00 -19.1 -23.7 67   15 4 15.0 99.34   -22  
02:00 -20.2 -23.5 75     0 15.0 99.32      
03:00 -21.0 -24.6 73   3 4 15.0 99.31   -25  
04:00 -21.5 -25.3 71   8 6 15.0 99.31   -27  
05:00 -22.1 -25.8 72   9 6 15.0 99.30   -27  
06:00 -21.8 -25.7 71   9 6 15.0 99.32   -27  
07:00 -17.1 -22.3 64   8 4 15.0 99.33   -20  
08:00 -11.6 -19.3 53     0 24.1 99.28     Mainly Clear
09:00 -7.5 -16.3 49   20 15 24.1 99.24   -14 Mostly Cloudy
10:00 -5.7 -12.3 60   21 15 16.1 99.22   -11 Snow
11:00 -4.5 -11.2 59   21 19 19.3 99.14   -11 Snow Showers
12:00 -2.8 -11.1 53   21 17 24.1 99.05   -8 Snow Showers
13:00 -1.9 -10.5 52   22 11 24.1 98.96   -6 Mostly Cloudy
14:00 -0.8 -10.5 48   20 13 24.1 98.89   -5 Mostly Cloudy
15:00 -0.9 -10.1 50   19 20 16.1 98.85   -6 Snow Showers
16:00 -2.8 -4.9 85   18 19 1.2 98.89   -9 Snow Showers
17:00 -2.8 -4.5 88   19 9 1.6 98.89   -6 Snow Showers
18:00 -2.9 -4.4 89   19 11 1.8 98.88   -7 Snow
19:00 -2.5 -4.9 84   19 7 15.0 98.90   -5 Snow
20:00 -2.4 -3.4 93   21 11 1.9 98.96   -6 Snow
21:00 -2.1 -3.6 89   26 22 8.0 99.07   -8 Snow
22:00 -3.6 -6.0 83   28 17 15.0 99.26   -9 Snow
23:00 -5.3 -7.2 86   27 9 15.0 99.42   -9  

Notes on Data Quality.

Legend

  • E = Estimated
  • M = Missing
  • NA = Not Available*
  • [empty] = Indicates an unobserved value
Date modified: